• MPC Preparation (Info)

  • MPEC 2013-R19 : 2013 RQ5

    The following Minor Planet Electronic Circular may be linked-to from your own Web pages, but must not otherwise be redistributed electronically.

    A form allowing access to any MPEC is at the bottom of this page.


    Read MPEC 2013-R18 Read MPEC 2013-R20


    M.P.E.C. 2013-R19                                Issued 2013 Sept. 3, 20:51 UT
    
         The Minor Planet Electronic Circulars contain information on unusual
             minor planets and routine data on comets.  They are published
       on behalf of Commission 20 of the International Astronomical Union by the
              Minor Planet Center, Smithsonian Astrophysical Observatory,
                              Cambridge, MA 02138, U.S.A.
    
                 Prepared using the Tamkin Foundation Computer Network
    
                                  MPC@CFA.HARVARD.EDU
                URL https://www.minorplanetcenter.net/    ISSN 1523-6714
    
                                       2013 RQ5
    
    Observations:
         K13R05Q* C2013 09 01.39941 23 50 40.82 -00 29 39.3          21.1 VqER019G96
         K13R05Q  C2013 09 01.41329 23 50 46.54 -00 28 45.0          21.1 VqER019G96
         K13R05Q  C2013 09 01.42023 23 50 49.45 -00 28 17.2          21.0 VqER019G96
         K13R05Q  C2013 09 01.45413 23 51 03.66 -00 26 02.7          20.9 VqER019G96
         K13R05Q  C2013 09 01.45491 23 51 03.94 -00 25 59.9          20.8 VqER019G96
         K13R05Q  C2013 09 01.45571 23 51 04.45 -00 25 56.0          20.9 VqER019G96
         K13R05Q  C2013 09 01.45676 23 51 04.84 -00 25 51.8          21.5 VqER019G96
         K13R05Q  C2013 09 01.45742 23 51 05.10 -00 25 49.8          20.9 VqER019G96
         K13R05Q  C2013 09 01.45809 23 51 05.42 -00 25 47.3          20.9 VqER019G96
         K13R05Q  C2013 09 01.45876 23 51 05.70 -00 25 43.7          21.1 VqER019G96
         K13R05Q  C2013 09 02.25197 23 58 35.17 +00 37 04.0          21.2 VqER019G96
         K13R05Q  C2013 09 02.25264 23 58 35.61 +00 37 07.4          20.7 VqER019G96
         K13R05Q  C2013 09 02.25332 23 58 36.05 +00 37 12.2          20.6 VqER019G96
         K13R05Q  C2013 09 02.25398 23 58 36.40 +00 37 15.3          21.2 VqER019G96
         K13R05Q  C2013 09 02.25466 23 58 36.84 +00 37 19.2          20.5 VqER019G96
         K13R05Q  C2013 09 02.32382 23 59 19.55 +00 43 56.1          20.7 VqER019G96
         K13R05Q  C2013 09 02.32437 23 59 19.83 +00 43 59.0          20.8 VqER019G96
         K13R05Q  C2013 09 02.32494 23 59 20.18 +00 44 02.5          20.8 VqER019G96
         K13R05Q  C2013 09 02.32551 23 59 20.61 +00 44 05.8          20.8 VqER019G96
         K13R05Q  C2013 09 02.40845 00 00 13.30 +00 52 20.2          20.8 VqER019G96
         K13R05Q  C2013 09 02.41604 00 00 18.22 +00 53 05.7          20.5 VqER019G96
         K13R05Q  C2013 09 02.42372 00 00 23.28 +00 53 52.9          21.0 VqER019G96
         K13R05Q  C2013 09 02.43134 00 00 28.30 +00 54 39.6          20.7 VqER019G96
         K13R05Q KC2013 09 03.05843 00 09 22.14 +02 09 31.1                qER019J95
         K13R05Q KC2013 09 03.06779 00 09 31.01 +02 10 51.1                qER019J95
         K13R05Q KC2013 09 03.07702 00 09 39.81 +02 12 09.7          20.3 RqER019J95
         K13R05Q KC2013 09 03.31721000 13 59.70 +02 49 42.4          20.5 VuER019H21
         K13R05Q KC2013 09 03.33037400 14 14.13 +02 51 53.4          20.3 VuER019H21
    
    Observer details:
    G96 Mt. Lemmon Survey.  Observer A. Boattini.  Measurers A. Boattini,
        E. J. Christensen, A. R. Gibbs, A. D. Grauer, R. E. Hill, J. A. Johnson,
        R. A. Kowalski, S. M. Larson, R. H. McNaught, F. C. Shelly.  1.5-m
        reflector + CCD.
    H21 Astronomical Research Observatory, Westfield.  Observer R. Holmes.
        Measurers R. Holmes, T. Linder, S. Foglia, L. Buzzi, T. Vorobjov.  0.76-m
        f/3.0 astrograph + CCD.
    J95 Great Shefford.  Observer P. Birtwhistle.  0.40-m f/6.0 Schmidt-Cassegrain
        + CCD.
    
    Orbital elements:
    2013 RQ5                                                 Earth MOID = 0.0013 AU
    Epoch 2013 Nov. 4.0 TT = JDT 2456600.5                  MPC
    M   3.91653              (2000.0)            P               Q
    n   0.33236124     Peri.  103.08300     +0.16679805     -0.98598152
    a   2.0640924      Node   337.31392     +0.90021188     +0.15408174
    e   0.7417026      Incl.    0.64496     +0.40223995     +0.06402542
    P   2.97           H   26.0           G   0.15           U   8
    Residuals in seconds of arc
    130901 G96  0.4-  0.0     130902 G96  0.1-  0.2-    130902 G96  0.2-  0.3-
    130901 G96  0.4-  0.2-    130902 G96  0.4+  0.6-    130902 G96  0.2+  0.1+
    130901 G96  0.1+  0.3+    130902 G96  0.7+  0.4+    130902 G96  0.2+  0.1+
    130901 G96  0.6-  0.1+    130902 G96  0.1-  0.2-    130903 J95  0.1-  0.3+
    130901 G96  1.4-  0.2-    130902 G96  0.2+  0.2-    130903 J95  0.1-  0.3+
    130901 G96  1.1+  0.5+    130902 G96  0.4+  0.3-    130903 J95  0.0   0.3-
    130901 G96  0.2+  0.5+    130902 G96  0.5-  0.6-    130903 H21  0.5+  0.3-
    130901 G96  0.1-  0.1-    130902 G96  0.6-  0.4-    130903 H21  0.1+  0.4-
    130901 G96  0.4+  0.3-    130902 G96  0.5+  0.4-
    130901 G96  0.3+  0.6+    130902 G96  0.3+  0.3+
    
    Ephemeris:
    2013 RQ5                 a,e,i = 2.06, 0.74, 1                   q = 0.5331
    Date    TT    R. A. (2000) Decl.     Delta      r     Elong.  Phase     V
    2013 08 04    23 11 09.3 -05 47 41   0.4677  1.4235   145.1    24.1    26.2
    ...
    2013 08 19    23 21 06.2 -04 37 01   0.2464  1.2422   156.7    18.8    24.4
    ...
    2013 08 27    23 30 31.5 -03 20 37   0.1368  1.1411   161.8    16.1    22.8
    ...
    2013 09 02    23 55 52.8 +00 16 00   0.05762 1.0635   160.3    18.6    20.9
    2013 09 03    00 08 24.0 +02 03 43   0.04482 1.0504   157.7    21.4    20.4
    2013 09 04    00 30 43.4 +05 14 03   0.03235 1.0373   152.3    26.9    19.8
    ...
    2013 09 10    10 23 25.5 +12 29 18   0.05047 0.9582    14.4   164.9    32.5
    ...
    2013 09 18    10 58 07.6 +07 53 44   0.1567  0.8525    12.4   165.3    35.0
    ...
    2013 10 03    11 13 20.7 +05 52 41   0.3814  0.6657    22.8   144.4    30.5
    
    A. U. Tomatic                (C) Copyright 2013 MPC           M.P.E.C. 2013-R19
    

    Read MPEC 2013-R18 Read MPEC 2013-R20


    MPEC number:

    Enter an MPEC number in one of the following forms:

    • 1997-B01 (the full form)
    • J97B01 (the packed version of the full form)
    • B01 (the abbreviated form)